Time,TemperatureF,DewpointF,PressureIn,WindDirection,WindDirectionDegrees,WindSpeedMPH,WindSpeedGustMPH,Humidity,HourlyPrecipIn,Conditions,Clouds,dailyrainin,SoftwareType,DateUTC
2013-01-09 00:05:00,50.0,46.0,30.36,ESE,106,7.0,-999.0,85,-99.99,,,0.00,weatherlink.com 1.10,2013-01-09 06:05:00,
2013-01-09 00:20:00,49.9,46.0,30.36,ESE,105,11.0,-999.0,85,-99.99,,,0.00,weatherlink.com 1.10,2013-01-09 06:20:00,
2013-01-09 00:35:00,49.7,45.0,30.36,East,100,8.0,-999.0,85,-99.99,,,0.00,weatherlink.com 1.10,2013-01-09 06:35:00,
2013-01-09 00:50:00,49.7,45.0,30.37,ESE,117,7.0,-999.0,85,-99.99,,,0.00,weatherlink.com 1.10,2013-01-09 06:50:00,
2013-01-09 01:05:00,49.7,45.0,30.37,East,97,11.0,-999.0,85,-99.99,,,0.00,weatherlink.com 1.10,2013-01-09 07:05:00,
2013-01-09 01:20:00,49.7,45.0,30.38,ESE,113,7.0,-999.0,85,-99.99,,,0.00,weatherlink.com 1.10,2013-01-09 07:20:00,
2013-01-09 01:35:00,49.7,45.0,30.38,ESE,119,5.0,-999.0,84,-99.99,,,0.00,weatherlink.com 1.10,2013-01-09 07:35:00,
2013-01-09 02:05:00,49.6,45.0,30.38,East,97,8.0,-999.0,84,-99.99,,,0.00,weatherlink.com 1.10,2013-01-09 08:05:00,
2013-01-09 02:20:00,49.7,45.0,30.38,East,100,9.0,-999.0,83,-99.99,,,0.00,weatherlink.com 1.10,2013-01-09 08:20:00,
2013-01-09 02:35:00,49.7,45.0,30.38,ESE,117,11.0,-999.0,83,-99.99,,,0.00,weatherlink.com 1.10,2013-01-09 08:35:00,
2013-01-09 02:50:00,49.7,44.0,30.38,ESE,109,6.0,-999.0,82,-99.99,,,0.00,weatherlink.com 1.10,2013-01-09 08:50:00,
2013-01-09 03:05:00,49.8,45.0,30.38,ENE,75,3.0,-999.0,82,-99.99,,,0.00,weatherlink.com 1.10,2013-01-09 09:05:00,
2013-01-09 03:20:00,49.9,45.0,30.38,East,88,5.0,-999.0,82,-99.99,,,0.00,weatherlink.com 1.10,2013-01-09 09:20:00,
2013-01-09 03:35:00,49.9,45.0,30.38,East,86,2.0,-999.0,82,-99.99,,,0.00,weatherlink.com 1.10,2013-01-09 09:35:00,
2013-01-09 03:50:00,50.0,45.0,30.38,ENE,78,0.0,-999.0,82,-99.99,,,0.00,weatherlink.com 1.10,2013-01-09 09:50:00,
2013-01-09 04:05:00,50.1,45.0,30.39,East,88,3.0,-999.0,82,-99.99,,,0.00,weatherlink.com 1.10,2013-01-09 10:05:00,
2013-01-09 04:20:00,50.2,45.0,30.39,East,94,5.0,-999.0,83,-99.99,,,0.00,weatherlink.com 1.10,2013-01-09 10:20:00,
2013-01-09 04:35:00,50.4,45.0,30.39,ESE,110,0.0,-999.0,83,-99.99,,,0.00,weatherlink.com 1.10,2013-01-09 10:35:00,
2013-01-09 04:50:00,50.5,46.0,30.39,ESE,117,5.0,-999.0,84,-99.99,,,0.00,weatherlink.com 1.10,2013-01-09 10:50:00,
2013-01-09 05:05:00,50.3,46.0,30.39,East,90,0.0,-999.0,86,-99.99,,,0.00,weatherlink.com 1.10,2013-01-09 11:05:00,
2013-01-09 05:20:00,49.7,47.0,30.39,East,98,2.0,-999.0,89,-99.99,,,0.01,weatherlink.com 1.10,2013-01-09 11:20:00,
2013-01-09 05:35:00,49.2,47.0,30.38,East,86,7.0,-999.0,91,-99.99,,,0.02,weatherlink.com 1.10,2013-01-09 11:35:00,
2013-01-09 05:50:00,49.0,47.0,30.38,East,79,5.0,-999.0,92,-99.99,,,0.03,weatherlink.com 1.10,2013-01-09 11:50:00,
2013-01-09 06:05:00,49.1,47.0,30.39,ESE,112,8.0,-999.0,92,-99.99,,,0.03,weatherlink.com 1.10,2013-01-09 12:05:00,
2013-01-09 06:20:00,49.2,47.0,30.40,ESE,116,4.0,-999.0,93,-99.99,,,0.03,weatherlink.com 1.10,2013-01-09 12:20:00,
2013-01-09 06:35:00,49.4,48.0,30.40,ESE,121,6.0,-999.0,93,-99.99,,,0.04,weatherlink.com 1.10,2013-01-09 12:35:00,
2013-01-09 06:50:00,49.4,48.0,30.41,SE,135,4.0,-999.0,94,-99.99,,,0.04,weatherlink.com 1.10,2013-01-09 12:50:00,
2013-01-09 07:23:00,49.5,48.0,30.43,ESE,121,8.0,-999.0,94,-99.99,,,0.05,weatherlink.com 1.10,2013-01-09 13:23:00,
2013-01-09 07:35:00,49.5,48.0,30.44,ESE,107,1.0,-999.0,94,-99.99,,,0.06,weatherlink.com 1.10,2013-01-09 13:35:00,
2013-01-09 07:50:00,49.5,48.0,30.44,ESE,108,5.0,-999.0,94,-99.99,,,0.06,weatherlink.com 1.10,2013-01-09 13:50:00,
2013-01-09 08:05:00,49.5,48.0,30.44,ENE,74,6.0,-999.0,94,-99.99,,,0.06,weatherlink.com 1.10,2013-01-09 14:05:00,
2013-01-09 08:20:00,49.4,48.0,30.44,East,93,6.0,-999.0,94,-99.99,,,0.07,weatherlink.com 1.10,2013-01-09 14:20:00,
2013-01-09 08:36:00,49.6,48.0,30.45,East,82,4.0,-999.0,95,-99.99,,,0.07,weatherlink.com 1.10,2013-01-09 14:36:00,
2013-01-09 08:51:00,49.7,48.0,30.45,ESE,107,5.0,-999.0,94,-99.99,,,0.07,weatherlink.com 1.10,2013-01-09 14:51:00,
2013-01-09 09:06:00,49.9,48.0,30.46,East,84,5.0,-999.0,94,-99.99,,,0.07,weatherlink.com 1.10,2013-01-09 15:06:00,
2013-01-09 09:21:00,50.2,49.0,30.46,East,97,1.0,-999.0,94,-99.99,,,0.08,weatherlink.com 1.10,2013-01-09 15:21:00,
2013-01-09 09:36:00,50.5,49.0,30.46,ENE,68,2.0,-999.0,94,-99.99,,,0.09,weatherlink.com 1.10,2013-01-09 15:36:00,
2013-01-09 09:51:00,50.7,49.0,30.46,ENE,74,4.0,-999.0,94,-99.99,,,0.09,weatherlink.com 1.10,2013-01-09 15:51:00,
2013-01-09 10:06:00,51.0,49.0,30.45,East,84,6.0,-999.0,94,-99.99,,,0.09,weatherlink.com 1.10,2013-01-09 16:06:00,
2013-01-09 10:21:00,51.5,50.0,30.45,East,94,11.0,-999.0,94,-99.99,,,0.09,weatherlink.com 1.10,2013-01-09 16:21:00,
2013-01-09 10:36:00,52.1,51.0,30.44,ESE,107,6.0,-999.0,94,-99.99,,,0.09,weatherlink.com 1.10,2013-01-09 16:36:00,
2013-01-09 10:51:00,52.3,51.0,30.43,ENE,63,6.0,-999.0,94,-99.99,,,0.09,weatherlink.com 1.10,2013-01-09 16:51:00,
2013-01-09 11:06:00,52.8,51.0,30.43,ENE,69,5.0,-999.0,94,-99.99,,,0.09,weatherlink.com 1.10,2013-01-09 17:06:00,
2013-01-09 11:21:00,53.3,51.0,30.42,ENE,70,5.0,-999.0,93,-99.99,,,0.09,weatherlink.com 1.10,2013-01-09 17:21:00,
2013-01-09 11:36:00,53.8,52.0,30.41,East,82,2.0,-999.0,93,-99.99,,,0.09,weatherlink.com 1.10,2013-01-09 17:36:00,
2013-01-09 11:51:00,54.0,52.0,30.40,East,98,7.0,-999.0,93,-99.99,,,0.09,weatherlink.com 1.10,2013-01-09 17:51:00,
2013-01-09 12:06:00,54.2,52.0,30.40,ENE,78,3.0,-999.0,92,-99.99,,,0.09,weatherlink.com 1.10,2013-01-09 18:06:00,
2013-01-09 12:21:00,54.7,53.0,30.40,ESE,116,0.0,-999.0,93,-99.99,,,0.09,weatherlink.com 1.10,2013-01-09 18:21:00,
2013-01-09 12:36:00,54.9,53.0,30.40,East,84,3.0,-999.0,92,-99.99,,,0.00,weatherlink.com 1.10,2013-01-09 18:36:00,
2013-01-09 12:51:00,55.1,53.0,30.39,East,96,1.0,-999.0,92,-99.99,,,0.00,weatherlink.com 1.10,2013-01-09 18:51:00,
2013-01-09 13:06:00,55.5,53.0,30.39,ENE,78,3.0,-999.0,91,-99.99,,,0.00,weatherlink.com 1.10,2013-01-09 19:06:00,
2013-01-09 13:21:00,55.7,53.0,30.39,East,86,4.0,-999.0,91,-99.99,,,0.00,weatherlink.com 1.10,2013-01-09 19:21:00,
2013-01-09 13:36:00,55.9,53.0,30.39,ENE,73,2.0,-999.0,91,-99.99,,,0.01,weatherlink.com 1.10,2013-01-09 19:36:00,
2013-01-09 13:51:00,55.7,54.0,30.39,East,98,2.0,-999.0,92,-99.99,,,0.01,weatherlink.com 1.10,2013-01-09 19:51:00,
2013-01-09 14:06:00,55.6,53.0,30.39,ENE,69,2.0,-999.0,92,-99.99,,,0.01,weatherlink.com 1.10,2013-01-09 20:06:00,
2013-01-09 14:21:00,55.6,54.0,30.39,ENE,78,3.0,-999.0,93,-99.99,,,0.01,weatherlink.com 1.10,2013-01-09 20:21:00,
2013-01-09 14:36:00,55.5,54.0,30.40,ENE,74,0.0,-999.0,93,-99.99,,,0.02,weatherlink.com 1.10,2013-01-09 20:36:00,
2013-01-09 14:51:00,55.5,54.0,30.40,ENE,78,3.0,-999.0,93,-99.99,,,0.02,weatherlink.com 1.10,2013-01-09 20:51:00,
2013-01-09 15:06:00,55.5,54.0,30.40,ENE,73,3.0,-999.0,94,-99.99,,,0.03,weatherlink.com 1.10,2013-01-09 21:06:00,
2013-01-09 15:21:00,55.4,54.0,30.40,ENE,60,3.0,-999.0,94,-99.99,,,0.05,weatherlink.com 1.10,2013-01-09 21:21:00,
2013-01-09 15:51:00,55.3,54.0,30.40,ENE,68,5.0,-999.0,95,-99.99,,,0.05,weatherlink.com 1.10,2013-01-09 21:51:00,
2013-01-09 16:06:00,55.2,54.0,30.40,ENE,74,6.0,-999.0,95,-99.99,,,0.06,weatherlink.com 1.10,2013-01-09 22:06:00,
2013-01-09 16:21:00,55.2,54.0,30.40,East,79,2.0,-999.0,95,-99.99,,,0.06,weatherlink.com 1.10,2013-01-09 22:21:00,
2013-01-09 16:36:00,55.3,54.0,30.40,ENE,78,3.0,-999.0,95,-99.99,,,0.06,weatherlink.com 1.10,2013-01-09 22:36:00,
2013-01-09 16:51:00,55.3,54.0,30.40,ENE,78,7.0,-999.0,94,-99.99,,,0.06,weatherlink.com 1.10,2013-01-09 22:51:00,